�������l�o���
Date,Time,MP-1(��Sv/h),MP-2(��Sv/h),MP-3(��Sv/h),MP-4(��Sv/h),MP-5(��Sv/h),MP-6(��Sv/h),MP-7(��Sv/h),MP-8(��Sv/h),����,����(m/s),���J
2020/04/19,00:00,0.669,0.932,0.627,1.150,0.791,0.390,0.675,0.642,��,13.3,��
2020/04/19,00:10,0.669,0.932,0.628,1.151,0.794,0.390,0.674,0.642,���k��,15.8,��
2020/04/19,00:20,0.671,0.933,0.626,1.152,0.793,0.390,0.674,0.642,���k��,9.2,��
2020/04/19,00:30,0.671,0.931,0.627,1.154,0.795,0.391,0.675,0.642,���k��,13.3,��
2020/04/19,00:40,0.670,0.933,0.628,1.154,0.797,0.391,0.673,0.642,���k��,13.8,��
2020/04/19,00:50,0.669,0.933,0.628,1.156,0.796,0.390,0.675,0.644,���k��,13.5,��
2020/04/19,01:00,0.670,0.936,0.631,1.156,0.798,0.391,0.673,0.646,���k��,13.3,��
2020/04/19,01:10,0.670,0.935,0.628,1.156,0.798,0.391,0.675,0.645,���k��,12.2,��
2020/04/19,01:20,0.672,0.934,0.631,1.156,0.796,0.390,0.675,0.646,���k��,12.7,�L
2020/04/19,01:30,0.668,0.935,0.630,1.157,0.797,0.390,0.675,0.645,���k��,13.6,��
2020/04/19,01:40,0.672,0.936,0.630,1.156,0.798,0.390,0.673,0.643,���k��,13.3,��
2020/04/19,01:50,0.671,0.936,0.629,1.159,0.798,0.391,0.674,0.644,���k��,13.8,�L
2020/04/19,02:00,0.671,0.935,0.631,1.158,0.799,0.390,0.675,0.644,���k��,14.1,��
2020/04/19,02:10,0.674,0.938,0.630,1.157,0.799,0.392,0.674,0.644,���k��,12.4,�L
2020/04/19,02:20,0.672,0.937,0.629,1.160,0.800,0.389,0.675,0.644,�k��,11.0,��
2020/04/19,02:30,0.672,0.939,0.631,1.158,0.800,0.390,0.675,0.644,���k��,10.6,��
2020/04/19,02:40,0.670,0.939,0.632,1.160,0.799,0.389,0.677,0.645,���k��,8.7,��
2020/04/19,02:50,0.671,0.939,0.630,1.158,0.800,0.390,0.674,0.644,���k��,8.8,��
2020/04/19,03:00,0.672,0.939,0.631,1.158,0.800,0.392,0.675,0.644,���k��,10.8,��
2020/04/19,03:10,0.673,0.942,0.631,1.159,0.799,0.390,0.675,0.645,���k��,10.8,�L
2020/04/19,03:20,0.671,0.939,0.633,1.159,0.798,0.390,0.674,0.644,���k��,11.1,�L
2020/04/19,03:30,0.670,0.940,0.631,1.160,0.801,0.392,0.675,0.646,���k��,9.4,��
2020/04/19,03:40,0.673,0.942,0.631,1.161,0.800,0.390,0.676,0.644,���k��,11.8,�L
2020/04/19,03:50,0.671,0.942,0.632,1.162,0.804,0.390,0.676,0.645,�k��,12.7,�L
2020/04/19,04:00,0.670,0.941,0.632,1.159,0.802,0.391,0.674,0.645,�k��,10.9,�L
2020/04/19,04:10,0.672,0.940,0.632,1.160,0.803,0.391,0.676,0.645,�k��,11.1,�L
2020/04/19,04:20,0.673,0.940,0.634,1.161,0.805,0.391,0.677,0.645,�k��,9.2,�L
2020/04/19,04:30,0.671,0.942,0.633,1.161,0.802,0.390,0.675,0.644,�k��,12.4,�L
2020/04/19,04:40,0.672,0.942,0.630,1.162,0.803,0.391,0.676,0.644,�k��,8.2,�L
2020/04/19,04:50,0.672,0.941,0.632,1.162,0.802,0.390,0.676,0.647,�k��,11.6,�L
2020/04/19,05:00,0.672,0.945,0.631,1.160,0.802,0.390,0.677,0.645,�k��,9.8,�L
2020/04/19,05:10,0.671,0.940,0.632,1.161,0.804,0.390,0.677,0.645,�k��,13.0,�L
2020/04/19,05:20,0.670,0.944,0.633,1.164,0.803,0.390,0.677,0.644,�k��,12.7,�L
2020/04/19,05:30,0.672,0.941,0.631,1.162,0.804,0.392,0.678,0.644,�k��,11.3,�L
2020/04/19,05:40,0.671,0.941,0.634,1.163,0.802,0.392,0.679,0.644,�k��,9.5,�L
2020/04/19,05:50,0.673,0.943,0.631,1.163,0.804,0.391,0.676,0.645,�k��,13.0,�L
2020/04/19,06:00,0.673,0.939,0.633,1.162,0.805,0.391,0.677,0.644,�k��,9.7,�L
2020/04/19,06:10,0.670,0.942,0.632,1.161,0.805,0.391,0.676,0.645,�k��,10.3,��
2020/04/19,06:20,0.670,0.942,0.633,1.162,0.805,0.389,0.678,0.645,�k��,11.6,��
2020/04/19,06:30,0.671,0.946,0.633,1.163,0.805,0.390,0.677,0.645,�k�k��,11.6,��
2020/04/19,06:40,0.672,0.946,0.633,1.163,0.806,0.390,0.676,0.646,�k��,11.7,��
2020/04/19,06:50,0.670,0.944,0.633,1.162,0.806,0.392,0.677,0.646,�k�k��,15.5,�L
2020/04/19,07:00,0.670,0.942,0.632,1.162,0.805,0.390,0.676,0.645,�k��,14.7,��
2020/04/19,07:10,0.672,0.944,0.633,1.163,0.809,0.389,0.677,0.645,�k�k��,11.9,��
2020/04/19,07:20,0.673,0.945,0.632,1.162,0.807,0.389,0.677,0.647,�k�k��,14.1,��
2020/04/19,07:30,0.670,0.945,0.634,1.163,0.805,0.389,0.676,0.646,�k�k��,14.4,�L
2020/04/19,07:40,0.672,0.947,0.633,1.162,0.807,0.388,0.677,0.645,�k�k��,15.2,��
2020/04/19,07:50,0.673,0.947,0.634,1.164,0.807,0.389,0.675,0.648,�k�k��,14.4,��
2020/04/19,08:00,0.673,0.947,0.635,1.167,0.807,0.390,0.676,0.647,�k�k��,13.3,��
2020/04/19,08:10,0.671,0.947,0.634,1.163,0.809,0.388,0.676,0.646,�k�k��,14.7,�L
2020/04/19,08:20,0.673,0.949,0.634,1.164,0.808,0.389,0.676,0.646,�k�k��,15.3,�L
2020/04/19,08:30,0.673,0.947,0.635,1.162,0.807,0.390,0.678,0.644,�k�k��,12.7,�L
2020/04/19,08:40,0.673,0.949,0.635,1.165,0.804,0.389,0.677,0.646,�k�k��,13.0,�L
2020/04/19,08:50,0.672,0.950,0.633,1.167,0.808,0.388,0.677,0.645,�k��,14.7,�L
2020/04/19,09:00,0.673,0.948,0.635,1.166,0.806,0.389,0.678,0.645,�k��,14.1,�L
2020/04/19,09:10,0.673,0.949,0.636,1.164,0.806,0.389,0.676,0.644,�k��,14.9,�L
2020/04/19,09:20,0.671,0.948,0.636,1.166,0.807,0.389,0.679,0.644,�k�k��,13.9,�L
2020/04/19,09:30,0.674,0.950,0.635,1.165,0.808,0.388,0.679,0.646,�k�k��,12.4,�L
2020/04/19,09:40,0.674,0.952,0.635,1.165,0.809,0.389,0.678,0.645,�k�k��,13.6,�L
2020/04/19,09:50,0.672,0.951,0.635,1.167,0.809,0.391,0.678,0.647,�k�k��,12.2,�L
2020/04/19,10:00,0.673,0.950,0.634,1.166,0.809,0.388,0.678,0.646,�k�k��,12.2,�L
2020/04/19,10:10,0.673,0.952,0.634,1.165,0.810,0.390,0.679,0.646,�k�k��,11.3,�L
2020/04/19,10:20,0.675,0.950,0.636,1.165,0.811,0.389,0.676,0.648,�k�k��,13.0,�L
2020/04/19,10:30,0.675,0.951,0.635,1.167,0.810,0.391,0.678,0.647,�k�k��,12.4,�L
2020/04/19,10:40,0.675,0.951,0.637,1.167,0.809,0.389,0.678,0.645,�k�k��,13.5,�L
2020/04/19,10:50,0.674,0.949,0.635,1.167,0.807,0.389,0.677,0.644,�k�k��,14.1,�L
2020/04/19,11:00,0.674,0.950,0.638,1.168,0.809,0.390,0.676,0.644,�k�k��,13.0,�L
2020/04/19,11:10,0.673,0.951,0.637,1.168,0.809,0.390,0.677,0.644,�k�k��,13.3,�L
2020/04/19,11:20,0.674,0.949,0.636,1.167,0.809,0.389,0.678,0.644,�k�k��,10.2,�L
2020/04/19,11:30,0.673,0.949,0.637,1.167,0.811,0.389,0.677,0.645,�k�k��,11.9,�L
2020/04/19,11:40,0.674,0.951,0.636,1.168,0.811,0.390,0.677,0.644,�k,12.7,�L
2020/04/19,11:50,0.675,0.949,0.637,1.168,0.812,0.389,0.677,0.646,�k,11.8,�L
2020/04/19,12:00,0.674,0.951,0.635,1.167,0.811,0.388,0.677,0.647,�k,13.5,�L
2020/04/19,12:10,0.675,0.953,0.636,1.167,0.812,0.389,0.677,0.648,�k,12.4,�L
2020/04/19,12:20,0.672,0.951,0.635,1.168,0.813,0.390,0.676,0.647,�k,10.2,�L
2020/04/19,12:30,0.674,0.952,0.638,1.168,0.812,0.388,0.676,0.647,�k�k��,13.9,�L
2020/04/19,12:40,0.674,0.952,0.636,1.169,0.810,0.389,0.677,0.646,�k,12.4,�L
2020/04/19,12:50,0.672,0.953,0.636,1.167,0.813,0.389,0.677,0.647,�k,11.4,�L
2020/04/19,13:00,0.674,0.954,0.636,1.167,0.811,0.389,0.677,0.647,�k,13.1,�L
2020/04/19,13:10,0.674,0.951,0.633,1.168,0.812,0.388,0.676,0.647,�k�k��,13.0,�L
2020/04/19,13:20,0.673,0.952,0.636,1.167,0.813,0.390,0.677,0.647,�k,11.6,�L
2020/04/19,13:30,0.675,0.952,0.636,1.165,0.814,0.389,0.676,0.647,�k,9.8,�L
2020/04/19,13:40,0.673,0.952,0.636,1.168,0.813,0.389,0.677,0.647,�k,10.5,�L
2020/04/19,13:50,0.671,0.952,0.634,1.167,0.810,0.388,0.676,0.645,�k�k��,9.8,�L
2020/04/19,14:00,0.672,0.949,0.635,1.166,0.810,0.389,0.676,0.644,�k,10.2,�L
2020/04/19,14:10,0.671,0.949,0.635,1.165,0.811,0.390,0.676,0.645,�k�k��,10.2,�L
2020/04/19,14:20,0.669,0.948,0.634,1.166,0.808,0.388,0.677,0.645,�k�k��,8.2,�L
2020/04/19,14:30,0.671,0.950,0.634,1.165,0.809,0.389,0.677,0.644,�k�k��,9.0,�L
2020/04/19,14:40,0.670,0.949,0.633,1.166,0.810,0.388,0.676,0.644,�k�k��,10.5,�L
2020/04/19,14:50,0.669,0.949,0.633,1.165,0.811,0.388,0.676,0.643,�k,10.2,�L
2020/04/19,15:00,0.668,0.949,0.634,1.163,0.810,0.389,0.676,0.644,�k,9.3,�L
2020/04/19,15:10,0.670,0.948,0.635,1.165,0.810,0.387,0.674,0.645,�k,9.0,�L
2020/04/19,15:20,0.669,0.949,0.635,1.165,0.810,0.387,0.675,0.645,�k�k��,9.4,�L
2020/04/19,15:30,0.668,0.949,0.631,1.164,0.809,0.388,0.675,0.645,�k�k��,10.5,�L
2020/04/19,15:40,0.670,0.947,0.632,1.165,0.808,0.390,0.674,0.645,�k�k��,10.8,�L
2020/04/19,15:50,0.668,0.947,0.634,1.164,0.810,0.387,0.674,0.643,�k�k��,9.6,�L
2020/04/19,16:00,0.670,0.947,0.631,1.163,0.810,0.388,0.674,0.645,�k,8.6,�L
2020/04/19,16:10,0.667,0.947,0.632,1.163,0.809,0.387,0.674,0.645,�k,8.3,�L
2020/04/19,16:20,0.668,0.947,0.633,1.164,0.810,0.387,0.673,0.645,�k,10.5,�L
2020/04/19,16:30,0.669,0.947,0.630,1.164,0.808,0.387,0.675,0.645,�k,12.0,�L
2020/04/19,16:40,0.668,0.946,0.631,1.165,0.810,0.386,0.674,0.645,�k,12.0,�L
2020/04/19,16:50,0.669,0.946,0.632,1.163,0.808,0.386,0.675,0.645,�k,11.7,��
2020/04/19,17:00,0.667,0.946,0.631,1.165,0.810,0.387,0.675,0.644,�k,11.8,��
2020/04/19,17:10,0.669,0.948,0.632,1.163,0.810,0.386,0.676,0.644,�k,13.1,��
2020/04/19,17:20,0.667,0.948,0.633,1.165,0.808,0.385,0.675,0.644,�k,12.4,��
2020/04/19,17:30,0.668,0.946,0.631,1.166,0.809,0.388,0.673,0.645,�k,10.0,��
2020/04/19,17:40,0.667,0.947,0.632,1.166,0.811,0.387,0.676,0.644,�k,11.3,��
2020/04/19,17:50,0.668,0.951,0.632,1.165,0.812,0.386,0.675,0.644,�k,10.9,��
2020/04/19,18:00,0.668,0.947,0.631,1.163,0.810,0.388,0.677,0.646,�k,10.2,��
2020/04/19,18:10,0.669,0.950,0.633,1.165,0.811,0.386,0.676,0.645,�k,11.1,��
2020/04/19,18:20,0.668,0.949,0.632,1.163,0.810,0.387,0.676,0.644,�k,11.8,��
2020/04/19,18:30,0.668,0.947,0.632,1.164,0.811,0.386,0.676,0.645,�k,9.3,��
2020/04/19,18:40,0.670,0.949,0.632,1.165,0.812,0.386,0.675,0.645,�k,12.4,��
2020/04/19,18:50,0.670,0.949,0.632,1.167,0.810,0.385,0.675,0.644,�k,11.0,��
2020/04/19,19:00,0.668,0.947,0.632,1.164,0.813,0.387,0.677,0.644,�k,11.6,��
2020/04/19,19:10,0.668,0.950,0.634,1.165,0.812,0.387,0.676,0.646,�k,9.3,��
2020/04/19,19:20,0.669,0.948,0.632,1.166,0.815,0.387,0.677,0.644,�k,9.3,�L
2020/04/19,19:30,0.669,0.948,0.633,1.164,0.810,0.387,0.674,0.645,�k�k��,11.3,��
2020/04/19,19:40,0.668,0.950,0.633,1.164,0.811,0.386,0.676,0.645,�k�k��,9.3,�L
2020/04/19,19:50,0.669,0.950,0.633,1.169,0.814,0.385,0.675,0.646,�k,10.5,��
2020/04/19,20:00,0.669,0.950,0.632,1.165,0.812,0.387,0.676,0.645,�k,10.3,��
2020/04/19,20:10,0.668,0.949,0.632,1.164,0.812,0.386,0.677,0.643,�k,10.5,�L
2020/04/19,20:20,0.669,0.950,0.632,1.164,0.813,0.386,0.676,0.646,�k,10.5,�L
2020/04/19,20:30,0.667,0.949,0.632,1.164,0.814,0.386,0.677,0.645,�k,9.9,�L
2020/04/19,20:40,0.669,0.951,0.633,1.166,0.814,0.386,0.675,0.647,�k,10.0,�L
2020/04/19,20:50,0.669,0.951,0.632,1.167,0.813,0.388,0.676,0.645,�k,9.8,�L
2020/04/19,21:00,0.670,0.950,0.633,1.166,0.813,0.387,0.677,0.646,�k,9.9,�L
2020/04/19,21:10,0.669,0.952,0.633,1.164,0.813,0.387,0.677,0.646,�k,8.1,�L
2020/04/19,21:20,0.669,0.951,0.632,1.166,0.813,0.387,0.677,0.646,�k,8.5,�L
2020/04/19,21:30,0.668,0.952,0.632,1.165,0.814,0.387,0.677,0.645,�k,8.3,�L
2020/04/19,21:40,0.667,0.952,0.631,1.167,0.811,0.386,0.676,0.646,�k,10.2,�L
2020/04/19,21:50,0.669,0.953,0.632,1.166,0.814,0.386,0.677,0.645,�k,9.5,��
2020/04/19,22:00,0.669,0.952,0.632,1.165,0.815,0.387,0.679,0.645,�k,9.1,��
2020/04/19,22:10,0.668,0.952,0.633,1.166,0.814,0.387,0.677,0.644,�k,7.8,��
2020/04/19,22:20,0.668,0.953,0.634,1.167,0.814,0.387,0.677,0.645,�k,8.7,��
2020/04/19,22:30,0.668,0.952,0.634,1.167,0.814,0.386,0.675,0.647,�k,7.3,��
2020/04/19,22:40,0.669,0.952,0.634,1.165,0.816,0.387,0.677,0.647,�k,8.9,�L
2020/04/19,22:50,0.671,0.951,0.634,1.166,0.815,0.387,0.676,0.644,�k,7.7,��
2020/04/19,23:00,0.669,0.954,0.633,1.166,0.814,0.386,0.677,0.645,�k,8.2,�L
2020/04/19,23:10,0.668,0.954,0.633,1.168,0.815,0.386,0.676,0.645,�k,7.0,�L
2020/04/19,23:20,0.669,0.953,0.634,1.166,0.816,0.387,0.677,0.645,�k,6.8,��
2020/04/19,23:30,0.668,0.953,0.633,1.168,0.814,0.386,0.677,0.645,�k,7.3,��
2020/04/19,23:40,0.670,0.952,0.633,1.168,0.816,0.387,0.677,0.645,�k,7.6,��
2020/04/19,23:50,0.668,0.954,0.636,1.165,0.815,0.386,0.676,0.646,�k,7.1,��
